Location: Home
(42.5358°N, 72.7383°W)
Time: 20:25:56
(UTC-04:00)

Vanguard 1 - Pass Details

Date: 28 May 2022
Orbit: 649 x 3831 km, 34.2° (Epoch: 30 May)

Event Time Altitude Azimuth Distance (km) Brightness Sun altitude
Exits shadow 21:49:35 - 101° (E) 5,461 13.4 -13.8°
Enters shadow 23:39:47 -30° 231° (SW) 7,809 14.6 -23.9°
Maximum altitude 00:03:29 34° 140° (SE) 3,375 12.3 -25.0°
